www.pogodaiklimat.ru

Погода и климат >> Архив погоды >> Бельгия >> Бьерсет


ПОГОДА в Бьерсете

  • Прогноз погоды в Бьерсете
  • Монитор погоды в Бьерсете

АРХИВ ПОГОДЫ в Бьерсете

Время (UTC), дата Ветер
(напр.,м/с)
 
Видим.   Явления Облачность Т
(С)
Тd
(С)
f
(%)
Тe
(С)
Тes
(С)
Комфортность P
(гПа)
Po
(гПа)
Тmin
(С)
Tmax
(С)
R
(мм)
R24
(мм)
S
(см)
04 14.09 СВ 2
{5}
20 км 4/4 1300 м
[Sc]
+10.8 +9.4 91 +9 +9 1034.1 1011.9
05 14.09 В 1
{3}
20 км 1/1 1300 м
[Sc]
+10.7 +9.2 90 +10 +10 1033.9 1011.8
06 14.09 ЮВ 1
{6}
8000 м 1/0
[Ci sp]
+10.7 +9.5 92 +10 +10 1033.5 1011.3 +9.9
07 14.09 СВ 1
{6}
9000 м 1/0
[Ci sp]
+12.4 +10.3 87 +12 +14 1033.8 1011.8
08 14.09 нст 1
{5}
10 км 1/0
[Ci sp]
+14.8 +12.0 83 +15 +19 1033.6 1011.8
09 14.09 В 2
{7}
11 км 1/0
[Ac trans Ci sp]
+16.4 +11.2 71 +17 +22 1033.4 1011.7
10 14.09 СВ 3
{8}
13 км 3/1 660 м
[Cu hum Ac trans Ci sp]
+18.3 +11.4 64 +19 +24 1033.1 1011.5
11 14.09 В 2
{8}
13 км 3/1 840 м
[Cu hum Ac trans Ci sp]
+19.7 +11.0 57 +22 +29 комфорт 1032.4 1010.9
12 14.09 СВ 2
{8}
13 км 3/1 960 м
[Cu hum Ac trans Ci sp]
+20.8 +11.0 53 +23 +31 комфорт 1031.5 1010.2
13 14.09 СВ 4
{6}
16 км 1/0
[Ci sp]
+21.6 +9.8 47 +23 +29 комфорт 1030.9 1009.6
14 14.09 СВ 4
{6}
18 км 1/0
[Ci sp]
+21.3 +8.5 44 +22 +27 комфорт 1030.3 1009.0
15 14.09 СВ 3
{7}
18 км 1/0
[Ci sp]
+21.5 +8.2 42 +23 +26 комфорт 1029.4 1008.2
16 14.09 СВ 3
{6}
18 км 4/0
[Ci sp]
+20.9 +7.7 43 +23 +24 комфорт 1029.0 1007.7
17 14.09 СВ 3
{6}
18 км 6/0
[Ci sp]
+19.9 +7.9 46 +21 +21 комфорт 1028.9 1007.5
18 14.09 СВ 2
{7}
30 км 8/0
[Ci fib]
+17.1 +7.2 52 +17 +17 1029.1 1007.6 +21.8
19 14.09 В 2
{3}
30 км 8/0
[Ci fib]
+17.4 +7.0 50 +18 +18 1028.8 1007.3
20 14.09 СВ 2
{3}
30 км 8/0
[Ci fib]
+15.3 +7.4 59 +15 +15 1028.8 1007.1
21 14.09 СВ 3
{5}
30 км 8/0
[Ci fib]
+13.8 +7.6 66 +13 +13 1028.9 1007.1
22 14.09 ЮВ 2
{5}
30 км 8/0
[Ci fib]
+15.1 +7.6 61 +15 +15 1028.2 1006.5
23 14.09 ЮВ 3
{4}
30 км 3/0
[Ci fib]
+14.0 +9.0 72 +13 +13 1027.2 1005.4
00 15.09 ЮВ 2
{5}
30 км 3/0
[Ci fib]
+13.7 +9.2 74 +13 +13 1026.9 1005.2
01 15.09 Ю 3
{6}
30 км 3/0
[Ci fib]
+13.6 +8.8 73 +13 +13 1026.4 1004.6
02 15.09 Ю 2
{7}
30 км 3/0
[Ci fib]
+13.3 +8.4 72 +13 +13 1026.1 1004.3
03 15.09 Ю 2
{7}
30 км 1/0
[Ci fib]
+12.8 +8.2 74 +12 +12 1025.9 1004.1
04 15.09 Ю 2
{3}
30 км 1/0
[Ci fib]
+12.8 +8.4 75 +12 +12 1025.7 1003.9
05 15.09 Ю 3
{6}
18 км 1/0
[Ci fib]
+11.1 +9.0 87 +9 +9 1025.7 1003.7
06 15.09 Ю 3
{7}
18 км 1/0
[Ci fib]
+12.4 +9.1 80 +11 +11 1025.6 1003.8 +10.6
07 15.09 Ю 2
{6}
25 км 1/0
[Ci sp]
+13.4 +9.7 78 +13 +14 1025.4 1003.7
08 15.09 Ю 2
{4}
25 км 3/0
[Ci sp]
+16.2 +10.9 71 +16 +19 1025.3 1003.7
09 15.09 ЮЗ 2
{6}
25 км 3/0
[Ci sp]
+18.4 +9.9 58 +19 +25 1025.1 1003.7
10 15.09 З 3
{4}
25 км 6/0
[Ci sp]
+20.7 +8.3 45 +22 +28 комфорт 1025.1 1003.9
11 15.09 СЗ 3
{5}
25 км 8/0
[Ci sp]
+21.4 +8.5 44 +23 +29 комфорт 1024.7 1003.6
12 15.09 З 3
{6}
25 км 8/0
[Ci sp]
+22.4 +7.5 38 +23 +30 комфорт 1024.2 1003.1
13 15.09 З 3
{7}
30 км 8/0
[Ci sp]
+23.1 +8.4 39 +24 +30 комфорт 1023.7 1002.7
14 15.09 ЮЗ 3
{7}
30 км 8/0
[Ci sp]
+23.6 +8.5 38 +24 +29 комфорт 1022.8 1001.8
15 15.09 З 4
{7}
30 км 8/0
[Ci sp]
+23.8 +7.6 35 +24 +26 комфорт 1022.4 1001.4
16 15.09 З 4
{7}
30 км 6/0
[Ci sp]
+23.4 +7.5 36 +24 +25 комфорт 1022.1 1001.1
17 15.09 СЗ 3
{6}
30 км 6/0
[Ci sp]
+22.3 +6.9 37 +23 +23 комфорт 1022.0 1000.9
18 15.09 СЗ 1
{7}
30 км 5/0
[Ci fib]
+20.2 +7.9 45 +22 +22 комфорт 1022.4 1001.2 +24.2
19 15.09 СЗ 1
{2}
30 км 5/0
[Ci fib]
+18.4 +8.3 52 +20 +20 1022.6 1001.2
20 15.09 СЗ 1
{2}
30 км 5/0
[Ci fib]
+17.0 +8.3 57 +18 +18 1023.2 1001.7
21 15.09 С 2
{4}
30 км 5/0
[Ci fib]
+16.5 +8.5 59 +17 +17 1023.2 1001.7
22 15.09 С 1
{3}
30 км 5/0
[Ci fib]
+16.0 +8.5 61 +17 +17 1023.1 1001.6
23 15.09 ЮВ 1
{3}
30 км 5/0
[Ci fib]
+15.8 +9.6 67 +17 +17 1022.9 1001.4
00 16.09 ЮВ 1
{4}
30 км 8/0
[Ci fib]
+15.5 +9.6 68 +16 +16 1022.5 1001.0
01 16.09 Ю 4
{5}
30 км 8/0
[Ci fib]
+14.9 +10.1 73 +14 +14 1022.0 1000.4
02 16.09 Ю 3
{8}
30 км 8/0
[Ci fib]
+15.3 +9.6 69 +15 +15 1021.8 1000.2
03 16.09 Ю 1
{8}
30 км 8/0
[Ci fib]
+14.3 +9.5 73 +15 +15 1021.6 1000.0
04 16.09 Ю 2
{5}
30 км 9/0
[Cs]
+13.7 +9.8 77 +13 +13 1021.0 999.4
05 16.09 ЮВ 3
{5}
25 км 10/0
[Ac trans Ci fib]
+13.5 +10.0 79 +12 +12 1020.7 999.1
06 16.09 Ю 2
{8}
25 км 9/0
[Ac trans Ci fib]
+14.0 +8.7 70 +14 +14 1021.0 999.4 +13.3
07 16.09 Ю 2
{6}
30 км 9/0
[Ac trans Ci fib]
+14.1 +9.1 72 +14 +14 1020.7 999.1
08 16.09 Ю 2
{6}
20 км 10/0
[Ac trans Ci fib]
+15.6 +9.7 68 +16 +17 1020.7 999.3
09 16.09 Ю 3
{6}
18 км 10/0
[Ac As Ci fib]
+16.8 +9.5 62 +17 +19 1020.8 999.4
10 16.09 ЮЗ 4
{6}
25 км 10/0
[Ac trans Ci fib]
+18.8 +10.1 57 +19 +22 1020.4 999.1
11 16.09 ЮЗ 4
{6}
30 км 10/0
[Ac As Ci fib]
+20.1 +9.5 50 +21 +24 комфорт 1020.3 999.1
12 16.09 З 4
{8}
30 км 10/4 1200 м
[Sc diur, vesp Ac As Ci fib]
+20.4 +9.2 49 +22 +24 комфорт 1020.1 998.9
13 16.09 З 5
{7}
30 км 10/3 1200 м
[Sc diur, vesp Ac As Ci fib]
+20.3 +10.1 52 +22 +23 комфорт 1019.8 998.7
14 16.09 З 5
{7}
35 км 10/4 1000 м
[Sc Ac As Ci fib]
+19.9 +10.5 55 +21 +22 комфорт 1019.7 998.6
15 16.09 З 3
{7}
30 км 10/4 840 м
[Sc Ac As Ci fib]
+19.7 +13.1 66 +22 +23 комфорт 1019.7 998.5
16 16.09 С 5
{8}
3000 м слаб. дождь 10/10 150 м
[Sc]
+16.3 +15.4 94 +15 +15 1020.4 999.0
17 16.09 С 3
{8}
1500 м дождь {морось} 10/6 60 м
[Frnb]
+15.7 +15.2 97 +15 +15 1020.4 999.0
18 16.09 С 3
{8}
5000 м в посл. час туман {дождь} 9/6 90 м
[St]
+15.3 +14.6 96 +15 +15 1020.5 999.1 +20.7 2
19 16.09 С 3
{5}
6000 м 10/6 150 м
[St]
+14.7 +13.8 94 +14 +14 1021.2 999.6
20 16.09 С 3
{5}
5000 м 9/8 150 м
[St]
+14.2 +13.4 95 +13 +13 1021.5 1000.0
21 16.09 СВ 2
{5}
5000 м 9/8 360 м
[Sc]
+14.0 +13.1 94 +13 +13 1021.5 999.9
22 16.09 С 1
{2}
3600 м дымка 9/8 150 м
[Sc]
+13.7 +13.1 96 +14 +14 1021.7 1000.1
23 16.09 С 1
{2}
3300 м дымка 9/8 150 м
[Sc]
+13.7 +13.2 97 +14 +14 1021.8 1000.2
00 17.09 СЗ 1
{5}
2600 м дымка 9/8 60 м
[Sc]
+13.6 +13.0 96 +14 +14 1021.7 1000.1
01 17.09 СЗ 1
{3}
2000 м слаб. морось 10/9 90 м
[Frnb]
+13.5 +12.7 95 +14 +14 1021.6 999.9
02 17.09 С 1
{4}
7000 м в посл. час дождь {морось} 10/8 360 м
[Sc]
+12.8 +11.8 94 +13 +13 1021.6 999.9
03 17.09 СЗ 1
{4}
3300 м дымка 6/6 90 м
[Sc]
+13.2 +12.5 96 +13 +13 1021.4 999.8
04 17.09 СЗ 2
{3}
3000 м дымка 8/8 150 м
[Sc]
+12.9 +12.2 96 +12 +12 1021.6 999.9
05 17.09 СЗ 2
{4}
2800 м дымка 9/6 120 м
[St]
+12.6 +11.9 95 +12 +12 1021.7 1000.0
06 17.09 СЗ 1
{4}
2200 м дымка {дождь} 4/4 90 м
[St Ci fib]
+11.4 +11.0 97 +11 +11 1022.2 1000.3 +11.4 0.4
07 17.09 СЗ 1
{2}
1400 м туман местами 4/3 30 м
[St Ci fib]
+12.0 +11.0 94 +12 +13 1022.4 1000.7
08 17.09 С 3
{5}
15 км в посл. час туман 4/1 330 м
[St Ci fib]
+13.4 +9.8 79 +12 +14 1023.0 1001.3
09 17.09 С 3
{6}
20 км {туман} 5/4 600 м
[Cu hum Ci fib]
+14.1 +9.5 74 +13 +16 1023.1 1001.5
10 17.09 С 3
{5}
20 км 6/4 840 м
[Cu hum Ci sp]
+14.9 +8.6 66 +14 +18 1023.0 1001.4
11 17.09 С 3
{6}
20 км 6/4 930 м
[Cu hum Ci sp]
+14.9 +8.1 64 +14 +18 1023.0 1001.4
12 17.09 СЗ 4
{7}
20 км {туман} 6/5 1020 м
[Cu hum Ci sp]
+16.5 +7.9 57 +16 +19 1022.7 1001.2
13 17.09 С 4
{6}
20 км 8/6 1020 м
[Cu Sc Ci sp]
+16.2 +8.1 59 +16 +17 1022.6 1001.1
14 17.09 СЗ 4
{7}
20 км 8/6 1140 м
[Cu Sc Ci sp]
+16.3 +7.6 56 +16 +17 1022.6 1001.1
15 17.09 СЗ 4
{8}
20 км 6/5 1200 м
[Cu Sc Ci sp]
+17.0 +7.9 55 +17 +18 1022.5 1001.1
16 17.09 СЗ 4
{8}
25 км 5/4 1200 м
[Cu Sc Ci sp]
+16.5 +8.3 58 +16 +17 1022.5 1001.0
17 17.09 С 5
{8}
30 км 4/4 1200 м
[Cu Sc Ci fib]
+15.5 +6.9 57 +14 +14 1022.8 1001.2
18 17.09 СЗ 3
{8}
45 км 4/1 1200 м
[Sc diur, vesp Ci fib]
+13.8 +7.3 65 +13 +13 1023.4 1001.7 +18.1
19 17.09 С 3
{6}
35 км 3/1 1200 м
[Sc diur, vesp Ci fib]
+12.5 +7.6 72 +11 +11 1024.4 1002.6
20 17.09 С 3
{7}
30 км 1/0
[Ci fib]
+11.1 +5.5 68 +9 +9 1025.2 1003.2
21 17.09 С 2
{7}
30 км ясно +9.5 +4.9 73 +8 +8 1025.8 1003.7
22 17.09 С 2
{3}
25 км ясно +8.8 +4.7 75 +7 +7 1025.8 1003.7
23 17.09 С 1
{2}
28 км ясно +8.2 +4.7 79 +8 +8 1026.5 1004.3
00 18.09 С 1
{7}
25 км ясно +8.0 +4.5 79 +7 +7 1026.5 1004.3
01 18.09 СВ 1
{4}
23 км ясно +8.3 +5.4 82 +8 +8 1026.5 1004.3
02 18.09 ЮЗ 1
{5}
20 км ясно +7.5 +4.2 80 +7 +7 1026.6 1004.3
03 18.09 штиль 0
{5}
20 км ясно +8.6 +4.7 76 +8 +8 1026.7 1004.5
04 18.09 ЮЗ 1
{1}
18 км ясно +6.9 +4.7 86 +6 +6 1026.8 1004.5
05 18.09 СЗ 1
{1}
17 км ясно +6.3 +4.4 88 +5 +5 1027.3 1004.9
06 18.09 нст 1
{5}
17 км 1/0
[Ci fib]
+6.7 +5.2 90 +6 +6 1027.6 1005.3 +5.8
07 18.09 нст 1
{4}
17 км 1/0
[Ci fib]
+8.7 +6.4 85 +8 +9 1027.8 1005.7
08 18.09 С 1
{3}
17 км 1/0
[Ci fib]
+10.5 +6.8 78 +10 +14 1028.2 1006.2
09 18.09 С 3
{5}
20 км 1/1 750 м
[Cu hum]
+13.1 +7.3 68 +12 +16 1028.4 1006.5
10 18.09 С 4
{6}
30 км 1/1 900 м
[Cu hum Ci fib]
+14.1 +5.7 57 +13 +17 1028.4 1006.6
11 18.09 С 4
{9}
30 км 3/3 1140 м
[Cu hum Ci fib]
+13.9 +4.9 55 +13 +17 1028.1 1006.3
12 18.09 С 3
{9}
30 км 4/4 1350 м
[Cu hum Ci fib]
+14.3 +4.3 51 +14 +18 1028.0 1006.2
13 18.09 С 3
{6}
30 км 4/4 1470 м
[Cu hum]
+15.2 +4.4 48 +15 +19 1027.4 1005.7
14 18.09 СВ 4
{7}
30 км 3/3 1500 м
[Cu hum]
+15.1 +4.3 48 +14 +17 1027.2 1005.5
15 18.09 С 4
{7}
30 км 3/3 1500 м
[Cu hum]
+15.0 +3.8 47 +14 +16 1027.0 1005.3
16 18.09 С 3
{7}
30 км 5/5 1500 м
[Sc diur, vesp]
+16.2 +3.8 44 +16 +17 1026.7 1005.1
17 18.09 С 3
{6}
30 км 6/6 1500 м
[Sc]
+14.4 +4.3 51 +14 +14 1026.9 1005.2
18 18.09 С 2
{7}
30 км 3/3 1500 м
[Sc diur, vesp Ci fib]
+12.9 +5.4 60 +12 +12 1027.3 1005.4 +17.0
19 18.09 С 3
{5}
40 км 6/6 1500 м
[Sc diur, vesp]
+13.2 +6.7 65 +12 +12 1027.9 1006.0
20 18.09 С 3
{4}
40 км 4/4 1500 м
[Sc diur, vesp]
+11.6 +6.5 71 +10 +10 1028.3 1006.3
21 18.09 С 3
{5}
45 км 4/4 1200 м
[Sc]
+10.9 +6.6 75 +9 +9 1028.7 1006.7
22 18.09 С 2
{5}
40 км 1/1 1200 м
[Sc]
+9.4 +6.7 83 +8 +8 1029.2 1007.0
23 18.09 С 2
{4}
45 км ясно +8.4 +6.1 85 +7 +7 1029.7 1007.4
00 19.09 СВ 1
{5}
35 км ясно +8.2 +6.1 87 +7 +7 1029.9 1007.6
01 19.09 С 1
{2}
45 км ясно +7.5 +6.1 91 +7 +7 1030.0 1007.7
02 19.09 С 2
{2}
30 км ясно +6.4 +5.3 93 +4 +4 1030.0 1007.6
03 19.09 СВ 3
{6}
20 км ясно +7.1 +5.9 92 +4 +4 1029.8 1007.5
04 19.09 СВ 1
{6}
13 км ясно +6.2 +5.4 95 +5 +5 1030.1 1007.6
05 19.09 В 1
{4}
12 км ясно +7.0 +5.8 92 +6 +6 1030.1 1007.7
06 19.09 СВ 1
{7}
11 км 1/1 1350 м
[Sc]
+5.8 +5.1 95 +4 +5 1030.6 1008.1 +5.8
07 19.09 ЮВ 1
{4}
11 км 1/1 1350 м
[Sc Ci fib]
+8.3 +6.8 90 +7 +9 1030.9 1008.6
08 19.09 В 3
{4}
11 км 1/1 1350 м
[Sc Ci fib]
+10.5 +7.0 79 +9 +11 1031.6 1009.5
09 19.09 СВ 4
{6}
20 км 1/1 800 м
[Cu Sc Ci fib]
+12.6 +5.7 63 +11 +14 1031.7 1009.7
10 19.09 СВ 4
{10}
20 км 1/1 800 м
[Cu hum Ci fib]
+14.1 +4.2 51 +13 +17 1031.6 1009.7
11 19.09 СВ 4
{9}
25 км 3/3 1080 м
[Cu hum Ci fib]
+14.5 +3.7 48 +13 +17 1031.5 1009.7
12 19.09 СВ 5
{10}
25 км 3/3 1200 м
[Cu hum Ci fib]
+14.4 +3.8 49 +13 +16 1031.1 1009.3
13 19.09 СВ 4
{10}
25 км 3/3 1320 м
[Cu hum Ci fib]
+16.3 +4.2 45 +16 +19 1030.5 1008.8
14 19.09 СВ 6
{10}
25 км 3/3 1380 м
[Cu hum Ci fib]
+16.2 +4.0 44 +15 +17 1030.3 1008.6
15 19.09 СВ 5
{10}
25 км 1/1 1380 м
[Cu hum Ci fib]
+16.2 +3.6 43 +15 +17 1029.8 1008.1
16 19.09 СВ 4
{8}
30 км 1/0
[Ci fib]
+15.9 +3.9 45 +15 +16 1029.6 1007.9
17 19.09 СВ 4
{6}
30 км 1/0
[Ci fib]
+14.8 +3.4 46 +14 +14 1029.8 1008.0
18 19.09 СВ 3
{10}
30 км 1/0
[Ci fib]
+12.5 +4.1 57 +11 +11 1030.1 1008.2 +16.7
19 19.09 СВ 3
{6}
30 км 1/0
[Ci fib]
+11.4 +4.1 61 +10 +10 1030.4 1008.4
20 19.09 СВ 2
{3}
30 км 1/0
[Ci fib]
+10.9 +4.0 62 +10 +10 1030.7 1008.6
21 19.09 СВ 3
{8}
30 км 1/0
[Ci fib]
+11.3 +3.9 60 +10 +10 1030.7 1008.7
22 19.09 В 3
{5}
30 км 1/0
[Ci fib]
+11.0 +3.6 60 +9 +9 1030.8 1008.7
23 19.09 В 3
{4}
30 км 1/0
[Ci fib]
+10.7 +3.5 61 +9 +9 1030.6 1008.5
00 20.09 ЮВ 2
{8}
30 км 1/0
[Ci fib]
+9.3 +4.1 70 +8 +8 1030.5 1008.3
01 20.09 В 2
{3}
30 км 1/0
[Ci fib]
+9.4 +3.9 68 +8 +8 1030.2 1008.0
02 20.09 ЮВ 1
{8}
30 км 1/0
[Ci fib]
+8.6 +3.9 72 +8 +8 1030.0 1007.7
03 20.09 В 2
{8}
30 км 1/0
[Ci fib]
+7.9 +4.1 77 +6 +6 1029.6 1007.3
04 20.09 В 1
{7}
30 км 1/0
[Ci fib]
+7.4 +4.2 80 +7 +7 1029.5 1007.2
05 20.09 ЮВ 1
{2}
30 км 3/0
[Ci fib]
+6.3 +3.9 85 +5 +5 1029.3 1006.9
06 20.09 нст 2
{8}
30 км 3/0
[Ci fib]
+6.5 +4.0 84 +4 +4 1029.7 1007.2 +6.3
07 20.09 ЮВ 2
{8}
30 км 3/0
[Ci fib]
+7.7 +4.2 78 +6 +7 1029.7 1007.4
08 20.09 ЮВ 2
{11}
30 км 5/0
[Ci sp]
+10.3 +4.6 68 +9 +12 1029.8 1007.7
09 20.09 В 1
{11}
30 км 6/0
[Ci sp]
+14.3 +3.9 50 +15 +20 1029.5 1007.7
10 20.09 ЮВ 2
{6}
30 км 6/0
[Ci sp]
+15.8 +2.4 40 +16 +22 1028.8 1007.1
11 20.09 В 3
{14}
30 км 6/0
[Ci sp]
+16.5 +3.4 42 +16 +22 1028.1 1006.5
12 20.09 В 3
{14}
30 км 6/0
[Ci sp]
+18.3 +4.4 40 +19 +25 1027.2 1005.7
14 20.09 СВ 5
{8}
30 км 6/0
[Ci sp]
+20.2 +2.2 30 +20 +23 1025.5 1004.2
15 20.09 В 4
{8}
30 км 6/0
[Ci sp]
+20.1 +1.7 29 +20 +22 1024.8 1003.5
16 20.09 СВ 6
{8}
30 км 5/0
[Ci sp]
+19.1 +2.9 34 +19 +19 1024.4 1003.0
17 20.09 СВ 5
{9}
30 км 5/0
[Ci sp]
+17.0 +2.1 37 +16 +16 1024.3 1002.8
18 20.09 В 4
{9}
45 км 4/0
[Ci sp]
+16.4 +2.5 39 +16 +16 1024.1 1002.6 +20.8
19 20.09 В 4
{8}
50 км 3/0
[Ci sp]
+15.7 +2.9 42 +15 +15 1024.1 1002.5
21 20.09 В 3
{8}
50 км ясно +14.1 +3.0 47 +13 +13 1023.3 1001.6
22 20.09 В 3
{5}
50 км ясно +13.5 +2.9 49 +13 +13 1022.9 1001.2
23 20.09 ЮВ 3
{4}
45 км ясно +11.5 +3.5 58 +10 +10 1022.5 1000.6
00 21.09 ЮВ 3
{8}
45 км ясно +11.9 +3.3 56 +11 +11 1022.1 1000.2
02 21.09 ЮВ 2
{4}
50 км ясно +10.9 +3.1 59 +10 +10 1021.1 999.2
03 21.09 ЮВ 2
{10}
50 км ясно +11.4 +2.6 55 +11 +11 1020.5 998.7

 

Местоположение метеостанции Бьерсет (Бельгия): широта 50.65 долгота 5.45 высота над уровнем моря 178 м.

В архиве по умолчанию представлена погода в Бьерсете за последнюю неделю. Архивные данные за месяц целиком и за предыдущие месяцы, начиная с января 2011 года, Вы можете получить, выбрав интересующий диапазон дат из раскрывающегося списка и нажав кнопку "Ввод!".


*Определитесь, кто Вы:
робот инопланетянин человек

Внимание! Время в таблицах - всемирное. Для получения местного времени необходимо прибавить поправку, которая равна 1 ч.

Смотрите также архив погоды в соседних городах и на ближайших метеорологических станциях:

Погода в Дипенбеке (Бельгия) (30 км)
Погода в Маастрихте (Нидерланды) (38 км)
Погода в Спа (Бельгия) (38 км)
Погода в Ахен-Орсбахе (Германия) (42 км)
Погода на Монт-Риги (Бельгия) (46 км)
Погода в Шаффене (Бельгия) (47 км)
Погода в Бовешене (Бельгия) (49 км)
Погода в Гумане (Бельгия) (52 км)
Погода в Эрнаже (Бельгия) (54 км)
Погода в Гайленкирхене (Германия) (55 км)

Пояснения к столбцам:

Ветер - указаны скорость ветра в м/с - средняя за 10 мин, порывы в срок и между сроками (в фигурных скобках) и направление, откуда дует ветер: С - северный, СВ - северо-восточный, В - восточный, ЮВ - юго-восточный, Ю - южный, ЮЗ - юго-западный, З - западный, СЗ - северо-западный.
Видимость - горизонтальная дальность видимости в метрах или километрах. При видимости от 1 до 10 км при отсутствии осадков обычно наблюдается дымка, при ухудшении видимости до 1 км и менее - туман. В сухую погоду видимость может ухудшаться дымом, пылью или мглою.
Явления - указаны атмосферные явления, наблюдавшиеся в срок или в последний час перед сроком; фигурными скобками обозначены явления, наблюдавшиеся между сроками (за 1-3 часа до срока); квадратными скобками обозначены град или гололедные отложения с указанием их диаметра в мм.
Облачность - указаны через наклонную черту общая и нижняя облачность в баллах и высота нижней границы облаков в метрах; квадратными скобками обозначены формы облаков: Ci - перистые, Cs - перисто-слоистые, Cc - перисто-кучевые, Ac - высококучевые, As - высокослоистые, Sc - слоисто-кучевые, Ns - слоисто-дождевые, Cu - кучевые, Cb - кучево-дождевые. Подробнее классификацию облаков см. в Атласе облаков (PDF).
T - Температура воздуха - температура, измеренная на высоте 2 м над землей.
Td - Температура точки росы - температура, при понижении до которой содержащийся в воздухе водяной пар достигнет насыщения.
f - Относительная влажность воздуха - влажноcть воздуха, измеренная на высоте 2 м над землей.
Te - Эффективная температура - температура, которую ощущает одетый по сезону человек в тени. Характеристика душности погоды. При расчете учитывается влияние влажности воздуха и скорости ветра на теплоощущения человека.
Tes - Эффективная температура на солнце - температура, которую ощущает человек, с поправкой на солнечный нагрев. Характеристика знойности погоды. Зависит от высоты солнца над горизонтом, облачности и скорости ветра. Ночью, в пасмурную погоду, а также при ветре 12 м/с и более поправка равна нулю.
P - Атмосферное давление - приведенное к уровню моря атмосферное давление.
Po - Атмосферное давление - измеренное на уровне метеостанции атмосферное давление.
Tmin - Минимальная температура - минимум температуры воздуха на высоте 2 м над землей.
Tmax - Максимальная температура - максимум температуры воздуха на высоте 2 м над землей.
R - Количество осадков - Количество выпавших осадков за период времени, мм. При наведении курсора мыши на число - период времени, за который выпало указанное количество осадков.
R24 - Количество осадков - Количество выпавших осадков за 24 часа, мм.
S - Снежный покров - Высота снежного покрова, см. При наведении курсора мыши на число - состояние снежного покрова и степень покрытия местности в баллах.